User: anonymous   Login
Location: Unspecified
(0.0000°N, 0.0000°E)
Time: 11:16:07
(UTC+00:00)
Language:

Skynet 4B - Orbit

View from above orbital plane
View from above orbital plane
View from above satellite
View from above satellite

Ground track
Ground track

The orbit data is extracted from the following two-line orbital elements,

1 19687U 88109A   18174.28545841 -.00000224 +00000-0 +00000-0 0  9994
2 19687 015.3625 001.5403 0003643 260.4516 099.4992 00.99682540089101
Epoch (UTC): 23 June 2018 06:51:03
Eccentricity: 0.0003643
inclination: 15.3625°
perigee height: 35937 km
apogee height: 35967 km
right ascension of ascending node: 1.5403°
argument of perigee: 260.4516°
revolutions per day: 0.99682540
mean anomaly at epoch: 99.4992°
orbit number at epoch: 8910

The dashed part of the orbit path shows where the satellite is in the earth's shadow,  

DLR